X

Important NEWS



New Hub Active

Miami is our new hub! Old members can request transfer via hr@dlxairways.net

Thank you very much and have nice flight.


Deluxe Airways.

X

Tours



Hello again, we created one nice test tour for all pilots to attend. also this is ment to be testing of our tour system

Available Tours

If you find some issues please inform us.

Thank you very much and have nice flight.


Deluxe Airways.

 METAR AND TAF INFORMATION
ArrayMETAR FOR LYPG
173402650 4 LYPG 121730Z 21005KT 180V240 9999 FEW030 20/08 Q1009 NOSIG LYPG 2021-05-12T17:30:00Z 42.37 19.25 20.0 8.0 210 5 6.21 29.793306 TRUE VFR METAR 32.0 LYPG 121700Z 21007KT 9999 FEW030 20/09 Q1008 NOSIG LYPG 2021-05-12T17:00:00Z 42.37 19.25 20.0 9.0 210 7 6.21 29.763779 TRUE VFR METAR 32.0 LYPG 121630Z 20006KT 9999 FEW030 22/08 Q1008 NOSIG LYPG 2021-05-12T16:30:00Z 42.37 19.25 22.0 8.0 200 6 6.21 29.763779 TRUE VFR METAR 32.0

 AIRPORT MAP

 RUNWAY INFORMATION
Runway 08 Runway length 7145 ft Runway width 50 ft
Runway elevation 0 ft Runway displaced threshold 0 ft Runway heading 86
Runway 26 Runway length 7145 ft Runway width 50 ft
Runway elevation 0 ft Runway displaced threshold 0 ft Runway heading 266
Runway 18 Runway length 8202 ft Runway width 148 ft
Runway elevation 118 ft Runway displaced threshold 0 ft Runway heading 184
Runway 36 Runway length 8202 ft Runway width 148 ft
Runway elevation 82 ft Runway displaced threshold 0 ft Runway heading 4

 AIRPORT FREQUENCIES
Type APP Name APP Frequency 118.7 MHZ
Type TWR Name TWR Frequency 118.2 MHZ

 AIRPORT NEAR NAVIGATION AIDS
Type NDB Name Podgorica Frequency 312 KHZ
Type VOR-DME Name Podgorica Frequency 113000 KHZ
Type NDB Name Podgorica Frequency 335 KHZ



Powered by Virtual Airlines Manager [v2.6.2]

Template code change by DeluxeAir